Flag for Chile Weather past 2 weeks in Antofagasta, Chile

Now
57 °F

Sunny.


Feels Like: 53 °F
Forecast: 53 / 70 °F
Wind: 18 mph from Southwest

Location: Antofagasta Airport

Current Time: Jul 24, 2014 at 12:23:26 PM

Latest Report: Jul 24, 2014 at 12:00 PM


Visibility: 10 mi

Pressure: 29.98 "Hg

Humidity: 67%

Dew point: 46 °F

Location of AntofagastaLocation

Historic Weather in Antofagasta — Graph

°F

Antofagasta temperature yesterday

Maximum temperature yesterday: 59 °F (at 1:00 PM)
Minimum temperature yesterday: 54 °F (at 5:00 AM)
Average temperature yesterday: 55 °F

Past Weeks' High & Low Weather Summary

 TemperatureHumidityPressure
High63 °F (Jul 18, 12:00 PM)88% (Jul 15, 3:00 AM)30.18 "Hg (Jul 15, 3:00 AM)
Low45 °F (Jul 24, 8:00 AM)41% (Jul 24, 9:00 AM)29.89 "Hg (Jul 10, 5:00 PM)
Average56 °F72%30.00 "Hg
* Reported Jul 9 11:00 AM — Jul 24 11:00 AM, Antofagasta, Weather by CustomWeather, © 2014

Note: Actual official high and low records may vary slightly from our data, if they occured in-between our weather recording intervals... More about our weather records

Advertising

Antofagasta weather history for previous 24 hours

 ConditionsComfort  
Time TempWeatherWind HumidityBarometerVisibility
11:00 AM
Jul 24
57 °FSunny.17 mph67%30.01 "Hg10 mi
10:00 AM55 °FPassing clouds.23 mph72%30.04 "HgN/A
9:00 AM54 °FPassing clouds.17 mph41%30.04 "HgN/A
8:00 AM45 °FPassing clouds.6 mph49%30.01 "HgN/A
7:00 AM50 °FPassing clouds.16 mph58%30.04 "HgN/A
6:00 AM52 °FPassing clouds.13 mph72%30.04 "HgN/A
5:00 AM48 °FPassing clouds.9 mph66%30.04 "HgN/A
4:00 AM52 °FPassing clouds.18 mph82%30.07 "HgN/A
3:00 AM52 °FPassing clouds.16 mph72%30.07 "HgN/A
2:00 AM48 °FPassing clouds.8 mph71%30.09 "HgN/A
1:00 AM50 °FPassing clouds.10 mph67%30.12 "HgN/A
12:00 AM50 °FPassing clouds.14 mph76%30.12 "HgN/A
11:00 PM
Jul 23
54 °FPassing clouds.18 mph72%30.12 "HgN/A
10:00 PM54 °FPassing clouds.18 mph72%30.12 "HgN/A
9:00 PM54 °FPassing clouds.21 mph77%30.12 "HgN/A
8:00 PM54 °FPassing clouds.22 mph77%30.12 "HgN/A
7:00 PM54 °FPassing clouds.22 mph72%30.12 "HgN/A
6:00 PM55 °FPassing clouds.21 mph67%30.12 "HgN/A
5:00 PM57 °FPassing clouds.22 mph63%30.12 "HgN/A
4:00 PM57 °FPassing clouds.21 mph63%30.15 "HgN/A
3:00 PM57 °FPassing clouds.22 mph67%30.15 "HgN/A
2:00 PM59 °FPassing clouds.23 mph63%30.15 "HgN/A
1:00 PM59 °FScattered clouds.24 mph63%30.18 "Hg3 mi
12:00 PM57 °FPassing clouds.22 mph67%30.18 "HgN/A
Weather by CustomWeather, © 2014

See weather overviewHow to use our weather pages